Location: Fazenda Monte Alegre
(4.8500°S, 38.0333°W)
Time: 15:48:13
(UTC+00:00)

GP-B - Pass Details

Date: 24 September 2020
Orbit: 631 x 635 km, 89.8° (Epoch: 24 October)

Event Time Altitude Azimuth Distance (km) Brightness Sun altitude
Rises 20:42:09 0° 359° (N) 2,905 6.5 -4.5°
Reaches altitude 10° 20:44:22 10° 357° (N) 2,001 5.7 -5.0°
Maximum altitude 20:48:44 70° 274° (W) 672 3.5 -6.1°
Drops below altitude 10° 20:53:09 10° 190° (S) 2,014 5.8 -7.2°
Sets 20:55:23 0° 187° (S) 2,925 6.6 -7.8°
